Weather History for Salinas, CA

Change the Weather History Date:

Saturday, October 5, 2013

  Actual Average Record
Temperature  
Mean Temperature 70 °F 63 °F  
Max Temperature 89 °F 74 °F 105 °F (1987)
Min Temperature 50 °F 52 °F 38 °F (1937)
Degree Days  
Heating Degree Days 0 3  
Month to date heating degree days 13 15  
Since 1 July heating degree days 136 210  
Cooling Degree Days 5 1  
Month to date cooling degree days 5 5  
Year to date cooling degree days 143 110  
Growing Degree Days 20 (Base 50)    
Moisture  
Dew Point 30 °F    
Average Humidity 30    
Maximum Humidity 51    
Minimum Humidity 8    
Precipitation  
Precipitation 0.00 in 0.01 in 1.00 in (2011)
Month to date precipitation 0.00 0.06  
Year to date precipitation 2.44 8.98  
Since 1 July precipitation 0.11 0.26  
Sea Level Pressure  
Sea Level Pressure 30.15 in    
Wind  
Wind Speed 8 mph (SE)    
Max Wind Speed 20 mph    
Max Gust Speed 24 mph    
Visibility 10 miles    
Events      
T = Trace of Precipitation, MM = Missing Value Source: NWS Daily Summary

Daily Weather History Graph

Daily Weather History Graph

Search for Another Location

Airport:

Trip Planner

Search our weather history database for the weather conditions in past years. The results will help you decide how hot, cold, wet, or windy it might be!

Date:

Astronomy

Oct. 05, 2013 Rise Set
Actual Time 7:05 AM PDT 6:43 PM PDT
Civil Twilight 6:39 AM PDT 7:09 PM PDT
Nautical Twilight 6:09 AM PDT 7:39 PM PDT
Astronomical Twilight 5:39 AM PDT 8:09 PM PDT
Moon 7:48 AM PDT (10/5) 7:08 PM PDT (10/5)
Length of Visible Light 12h 29m
Length of Day
11h 38m
New Moon, 1% of the Moon is Illuminated
Oct 5
New Moon
Oct 11
First Quarter
Oct 18
Full
Oct 26
Last Quarter
Nov 3
New

Hourly Weather History & Observations

Time (PDT) Temp. Dew Point Humidity Pressure Visibility Wind Dir Wind Speed Gust Speed Precip Events Conditions
12:53 AM 55.0 °F 37.0 °F 51% 30.12 in 10.0 mi East 3.5 mph - N/A   Clear
1:53 AM 55.9 °F 36.0 °F 47% 30.14 in 10.0 mi ESE 4.6 mph - N/A   Clear
2:53 AM 54.0 °F 36.0 °F 51% 30.14 in 10.0 mi East 5.8 mph - N/A   Clear
3:53 AM 53.1 °F 35.1 °F 50% 30.14 in 10.0 mi SE 5.8 mph - N/A   Clear
4:53 AM 51.1 °F 34.0 °F 52% 30.14 in 10.0 mi ESE 8.1 mph - N/A   Clear
5:53 AM 51.1 °F 33.1 °F 50% 30.14 in 10.0 mi ESE 11.5 mph - N/A   Clear
6:53 AM 55.0 °F 28.9 °F 37% 30.15 in 10.0 mi ESE 11.5 mph - N/A   Clear
7:53 AM 55.0 °F 28.9 °F 37% 30.17 in 9.0 mi ESE 15.0 mph - N/A   Clear
8:53 AM 57.0 °F 32.0 °F 39% 30.19 in 10.0 mi East 11.5 mph - N/A   Clear
9:53 AM 66.9 °F 32.0 °F 27% 30.19 in 10.0 mi ESE 17.3 mph - N/A   Clear
10:53 AM 75.0 °F 34.0 °F 22% 30.19 in 10.0 mi ESE 13.8 mph - N/A   Clear
11:53 AM 82.0 °F 32.0 °F 16% 30.18 in 10.0 mi ESE 17.3 mph - N/A   Clear
12:53 PM 86.0 °F 26.1 °F 11% 30.17 in 10.0 mi ESE 13.8 mph - N/A   Clear
1:53 PM 88.0 °F 27.0 °F 11% 30.14 in 10.0 mi SE 8.1 mph - N/A   Clear
2:53 PM 89.1 °F 21.9 °F 9% 30.12 in 10.0 mi Calm Calm - N/A   Clear
3:53 PM 86.0 °F 21.0 °F 9% 30.12 in 10.0 mi West 13.8 mph - N/A   Clear
4:53 PM 84.0 °F 21.9 °F 10% 30.12 in 10.0 mi West 11.5 mph - N/A   Clear
5:53 PM 80.1 °F 25.0 °F 13% 30.12 in 10.0 mi West 10.4 mph - N/A   Clear
6:53 PM 75.0 °F 28.0 °F 18% 30.13 in 10.0 mi NW 4.6 mph - N/A   Clear
7:53 PM 72.0 °F 28.9 °F 20% 30.14 in 10.0 mi WSW 4.6 mph - N/A   Clear
8:53 PM 69.1 °F 24.1 °F 18% 30.14 in 10.0 mi Calm Calm - N/A   Clear
9:53 PM 66.0 °F 26.1 °F 22% 30.14 in 10.0 mi Calm Calm - N/A   Clear
10:53 PM 60.1 °F 30.0 °F 32% 30.14 in 10.0 mi Calm Calm - N/A   Clear
11:53 PM 57.9 °F 34.0 °F 41% 30.14 in 10.0 mi Calm Calm - N/A   Clear